This demonstration page uses our WeatherBlox Daily Observations layout. Learn more.

Left ArrowRight Arrow

41.55636, -103.73856

Hourly Observations for October 16, 2021

Temp ( °F °C ) Dew Point ( °F °C ) Humidity (%) Winds ( mph kmh ) Pressure ( in mb ) Visibility ( mi km ) Precip ( " mm )
12:58 am 00:58 Clear 36 2.1 23 -4.9 60 60 W 12 19 30.30 1026 10 16 N/A
1:58 am 01:58 Clear 35 1.4 23 -4.9 63 63 W 13 20 30.30 1026 10 16 N/A
2:58 am 02:58 Clear 35 1.9 24 -4.4 63 63 W 12 19 30.30 1026 10 16 N/A
3:58 am 03:58 Clear 36 2 24 -4.6 62 62 W 12 19 30.30 1026 10 16 N/A
4:58 am 04:58 Clear 32 0.2 24 -4.5 71 71 W 12 19 30.34 1027 10 16 N/A
5:58 am 05:58 Clear 34 1.2 24 -4.7 65 65 W 12 19 30.35 1028 10 16 N/A
6:58 am 06:58 Clear 34 1 23 -5 65 65 W 12 19 30.38 1029 10 16 N/A
7:58 am 07:58 Sunny 37 2.7 23 -4.9 58 58 WSW 8 13 30.39 1029 10 16 N/A
8:58 am 08:58 Sunny 46 7.7 24 -4.2 43 43 WNW 8 13 30.39 1029 10 16 N/A
9:58 am 09:58 Sunny 51 10.6 23 -4.9 34 34 NW 10 17 30.37 1029 10 16 N/A
10:58 am 10:58 Sunny 57 14.1 23 -5 26 26 NW 16 26 30.34 1027 10 16 N/A
11:58 am 11:58 Sunny 60 15.6 23 -5.1 24 24 NNW 12 19 30.33 1027 10 16 N/A
12:58 pm 12:58 Sunny 61 16 23 -4.9 24 24 NW 14 22 30.32 1027 10 16 N/A
1:58 pm 13:58 Sunny 62 16.5 23 -4.8 23 23 NW 3 6 30.29 1026 10 16 N/A
2:58 pm 14:58 Sunny 63 17.3 24 -4.3 23 23 WNW 8 13 30.28 1025 10 16 N/A
3:58 pm 15:58 Sunny 64 17.5 25 -4.1 23 23 NNW 8 13 30.26 1025 10 16 N/A
4:58 pm 16:58 Sunny 63 17.4 25 -3.7 24 24 NW 5 7 30.26 1025 10 16 N/A
5:58 pm 17:58 Sunny 61 16.1 24 -4.3 24 24 N N/A 30.26 1025 10 16 N/A
6:58 pm 18:58 Clear 49 9.4 28 -2.1 45 45 S 6 9 30.31 1027 10 16 N/A
7:58 pm 19:58 Clear 46 7.5 29 -1.4 54 54 SSW 5 7 30.32 1027 10 16 N/A
8:58 pm 20:58 Clear 46 7.9 27 -2.6 48 48 SSW 7 11 30.29 1026 10 16 N/A
9:58 pm 21:58 Clear 46 7.7 26 -3.5 45 45 S 8 13 30.27 1025 10 16 N/A
10:58 pm 22:58 Clear 45 7.2 26 -3.2 48 48 SSW 7 11 30.24 1024 10 16 N/A
11:58 pm 23:58 Clear 43 5.9 26 -3.3 52 52 SW 5 7 30.22 1023 10 16 N/A

Powered by AerisWeather